Kaldármelar Airport

Jump to: basic info | weather | comments

Related pages: nearby airports | nearby navaids | notams | map

Basic information (top)

Codes: BIKA
Location: lon 64.778900, lat -22.256901, elev 160 ft / 49 m msl
Status: small_airport

Weather (top)

Current conditions for Reykjavik Airport 40nm (74km) SSE (rec'd 2014/08/27 22:00Z):

BIRK 272200Z 06007KT 040V100 9999 FEW032 BKN055 13/07 Q1007

Airport forecast for Reykjavik Airport 40nm (74km) SSE (rec'd 2014/08/27 21:03Z):

TAF BIRK 271959Z 2721/2821 16010KT 9999 FEW018 BKN025 OVC050 TX18/2815Z TN10/2804Z

Latest comments (top)

No comments yet for Kaldármelar Airport

More... (top)

See also NOTAMs and nearby airports and navaids, or visit the Kaldármelar Airport page at the main OurAirports website..